Regional Weather Roundup
Issued by NWS Little Rock, AR

Home | Current Version | Previous Version | Text Only | Print | Product List | Glossary Off
Versions: 1 2 3 4 5 6 7 8 9 10 11 12 13 14 15 16 17 18 19 20 21 22 23 24 25 26 27 28 29 30 31 32 33 34 35 36 37 38 39 40 41 42 43 44 45 46 47 48 49 50

000
ASUS44 KLZK 180405
RWRLZK

WEATHER ROUNDUP FOR ARKANSAS
NATIONAL WEATHER SERVICE LITTLE ROCK AR
1000 PM CST WED DEC 17 2014

NOTE: "FAIR" INDICATES FEW OR NO CLOUDS BELOW 12,000 FEET WITH NO
SIGNIFICANT WEATHER AND/OR OBSTRUCTIONS TO VISIBILITY.

ARZ001-003-010-029-180500-
NORTHWEST ARKANSAS

CITY           SKY/WX    TMP DP  RH WIND       PRES   REMARKS
FAYETTEVILLE   LGT RAIN  36  35  96 E3        30.20F
FORT SMITH     LGT RAIN  36  33  89 E10       30.24F
HARRISON       LGT RAIN  33  33 100 E8        30.22F FOG     WCI  26
BENTONVILLE    CLOUDY    36  32  87 SE8       30.20F
ROGERS         LGT RAIN  35  34  96 SE10      30.19F WCI  27
SILOAM SPGS    CLOUDY    36  28  75 SE3       30.21F
HIGHFILL       CLOUDY    36  32  85 E6        30.18F
$$

ARZ004-005-016-180500-
NORTH CENTRAL ARKANSAS

CITY           SKY/WX    TMP DP  RH WIND       PRES   REMARKS
BATESVILLE     CLOUDY    36  32  87 CALM      30.33R
FLIPPIN        CLOUDY    36  30  80 SE3       30.27R
MTN HOME       RAIN      33  33 100 CALM      30.26R FOG
$$

ARZ040-041-180500-
WEST CENTRAL ARKANSAS

CITY           SKY/WX    TMP DP  RH WIND       PRES   REMARKS
MENA           CLOUDY    37  36  93 E7        30.22F
MOUNT IDA      LGT RAIN  37  35  92 CALM      30.20F
$$

ARZ009-017-025-026-028-180500-
NORTHEAST ARKANSAS

CITY           SKY/WX    TMP DP  RH WIND       PRES   REMARKS
CORNING        LGT RAIN  37  32  81 NW3       30.33R
JONESBORO      LGT RAIN  37  35  92 NW7       30.31R
NEWPORT        LGT RAIN  37  36  96 NW8       30.34R
WALNUT RIDGE   CLOUDY    37  32  81 NW7       30.32R
BLYTHEVILLE    CLOUDY    38  35  89 NE6       30.27S
$$

ARZ022-023-033-042-044-180500-
CENTRAL ARKANSAS

CITY           SKY/WX    TMP DP  RH WIND       PRES   REMARKS
LITTLE ROCK    LGT RAIN  39  33  79 NE9       30.27F
N LITTLE ROCK  CLOUDY    36  35  98 NE9       30.27F
JACKSONVILLE   LGT RAIN  36  33  89 NE9       30.25F
SEARCY         LGT RAIN  37  34  89 NW3       30.34R
HOT SPRINGS    LGT RAIN  37  34  89 CALM      30.25F
RUSSELLVILLE   HVY RAIN  37  35  92 CALM      30.27F FOG
CLINTON        LGT RAIN  36  34  93 CALM      30.30F
$$

ARZ036-180500-
EAST ARKANSAS

CITY           SKY/WX    TMP DP  RH WIND       PRES   REMARKS
WEST MEMPHIS   CLOUDY    39  33  79 E5        30.24R
$$

ARZ050-053-066-070-073-180500-
SOUTHWEST ARKANSAS

CITY           SKY/WX    TMP DP  RH WIND       PRES   REMARKS
ARKADELPHIA    LGT RAIN  38  38 100 NE7       30.26R
CAMDEN         CLOUDY    41  34  75 MISG      30.23F
TEXARKANA      RAIN      38  36  92 NE8       30.23R FOG
EL DORADO      CLOUDY    45  37  73 NE5       30.23R
DE QUEEN       LGT RAIN  38  36  92 E5        30.23S FOG
$$

ARZ056-057-069-180500-
SOUTHEAST ARKANSAS

CITY           SKY/WX    TMP DP  RH WIND       PRES   REMARKS
PINE BLUFF     LGT RAIN  40  34  79 N9        30.28R
STUTTGART      CLOUDY    39  34  81 NW12      30.32R
MONTICELLO     CLOUDY    43  36  76 VRB3      30.26R

$$




USA.gov is the U.S. government's official web portal to all federal, state and local government web resources and services.